This demonstration page uses our WeatherBlox Daily Observations layout. Learn more.

Left ArrowRight Arrow

36.17497, -115.13722

Hourly Observations for August 1, 2020

Temp ( °F °C ) Dew Point ( °F °C ) Humidity (%) Winds ( mph kmh ) Pressure ( in mb ) Visibility ( mi km ) Precip ( " mm )
12:53 am 00:53 Clear 98 36.7 39 3.9 13 13 SW 6 9 29.79 1009 10 16 N/A
1:53 am 01:53 Clear 98 36.7 37 2.8 12 12 WSW 6 9 29.79 1009 10 16 N/A
2:53 am 02:53 Clear 96 35.6 34 1.1 11 11 SW 8 13 29.79 1009 10 16 N/A
3:53 am 03:53 Clear 89 31.7 37 2.8 16 16 N N/A 29.79 1009 10 16 N/A
4:53 am 04:53 Clear 85 29.4 41 5 21 21 N N/A 29.80 1009 10 16 N/A
5:53 am 05:53 Sunny 85 29.4 40 4.4 20 20 NW 6 9 29.82 1010 10 16 N/A
6:53 am 06:53 Sunny 87 30.6 37 2.8 17 17 NNW 7 11 29.85 1011 10 16 N/A
7:53 am 07:53 Sunny 91 32.8 40 4.4 17 17 N 3 6 29.86 1011 10 16 N/A
8:53 am 08:53 Sunny 96 35.6 35 1.7 12 12 NNW 5 7 29.86 1011 10 16 N/A
9:53 am 09:53 Sunny 99 37.2 29 -1.7 8 8 NE 3 6 29.86 1011 10 16 N/A
10:53 am 10:53 Sunny 105 40.6 29 -1.7 7 7 N 6 9 29.85 1011 10 16 N/A
11:53 am 11:53 Sunny 108 42.2 17 -8.3 4 4 SSE 8 13 29.84 1010 10 16 N/A
12:53 pm 12:53 Sunny 112 44.4 3 -16.1 2 2 S 14 22 29.82 1010 10 16 N/A
1:53 pm 13:53 Sunny 113 45 1 -17.2 2 2 S 16 26 29.80 1009 10 16 N/A
2:53 pm 14:53 Sunny 113 45 4 -15.6 2 2 S 16 26 29.78 1009 10 16 N/A
3:53 pm 15:53 Sunny 113 45 3 -16.1 2 2 SSW 13 20 29.77 1008 10 16 N/A
4:53 pm 16:53 Sunny 113 45 3 -16.1 2 2 SSW 17 28 29.76 1008 10 16 N/A
5:53 pm 17:53 Sunny 112 44.4 8 -13.3 2 2 SW 13 20 29.75 1007 10 16 N/A
6:53 pm 18:53 Sunny 110 43.3 9 -12.8 2 2 SW 16 26 29.75 1007 10 16 N/A
7:53 pm 19:53 Clear 107 41.7 10 -12.2 3 3 SW 14 22 29.75 1008 10 16 N/A
8:53 pm 20:53 Clear 103 39.4 16 -8.9 4 4 SSW 8 13 29.77 1008 10 16 N/A
9:53 pm 21:53 Clear 102 38.9 18 -7.8 5 5 SSW 9 15 29.78 1009 10 16 N/A
10:53 pm 22:53 Clear 98 36.7 20 -6.7 6 6 WSW 3 6 29.80 1009 10 16 N/A
11:53 pm 23:53 Clear 97 36.1 18 -7.8 6 6 WSW 6 9 29.80 1009 10 16 N/A

Powered by AerisWeather